TimeEDT,TemperatureF,Dew PointF,Humidity,Sea Level PressureIn,VisibilityMPH,Wind Direction,Wind SpeedMPH,Gust SpeedMPH,PrecipitationIn,Events,Conditions,WindDirDegrees,DateUTC
12:15 AM,50.0,43.7,79,30.34,10.0,South,8.1,-,N/A,,Clear,180,2013-10-14 04:15:00
12:35 AM,50.0,43.7,79,30.33,10.0,South,8.1,-,N/A,,Clear,180,2013-10-14 04:35:00
12:55 AM,50.0,43.3,78,30.33,10.0,South,8.1,-,N/A,,Clear,170,2013-10-14 04:55:00
1:15 AM,49.8,43.5,79,30.33,10.0,South,6.9,-,N/A,,Clear,170,2013-10-14 05:15:00
1:35 AM,49.5,43.2,79,30.33,10.0,South,8.1,-,N/A,,Clear,170,2013-10-14 05:35:00
1:55 AM,49.3,43.3,80,30.32,10.0,South,8.1,-,N/A,,Clear,180,2013-10-14 05:55:00
2:15 AM,49.3,43.3,80,30.32,10.0,SSE,9.2,-,N/A,,Clear,160,2013-10-14 06:15:00
2:35 AM,49.1,43.5,81,30.32,10.0,South,5.8,-,N/A,,Scattered Clouds,170,2013-10-14 06:35:00
2:55 AM,49.1,43.3,81,30.32,10.0,South,8.1,-,N/A,,Scattered Clouds,170,2013-10-14 06:55:00
3:15 AM,48.7,43.5,82,30.31,10.0,South,6.9,-,N/A,,Clear,170,2013-10-14 07:15:00
3:35 AM,49.1,43.7,82,30.31,10.0,South,5.8,-,N/A,,Scattered Clouds,170,2013-10-14 07:35:00
3:55 AM,48.7,43.7,83,30.31,10.0,South,5.8,-,N/A,,Scattered Clouds,180,2013-10-14 07:55:00
4:15 AM,49.1,43.9,82,30.31,10.0,South,5.8,-,N/A,,Mostly Cloudy,170,2013-10-14 08:15:00
4:35 AM,49.1,43.9,82,30.31,10.0,South,6.9,-,N/A,,Overcast,190,2013-10-14 08:35:00
4:55 AM,48.7,43.7,83,30.31,10.0,SSW,6.9,-,N/A,,Overcast,200,2013-10-14 08:55:00
5:15 AM,48.7,43.7,83,30.31,10.0,South,4.6,-,N/A,,Overcast,180,2013-10-14 09:15:00
5:35 AM,49.1,43.9,82,30.32,10.0,SSW,5.8,-,N/A,,Overcast,200,2013-10-14 09:35:00
5:55 AM,49.3,44.1,82,30.31,10.0,SSW,6.9,-,N/A,,Overcast,200,2013-10-14 09:55:00
6:15 AM,49.5,44.2,82,30.32,10.0,SSW,4.6,-,N/A,,Overcast,200,2013-10-14 10:15:00
6:35 AM,49.5,44.6,83,30.32,7.0,SSW,5.8,-,N/A,,Drizzle,200,2013-10-14 10:35:00
6:55 AM,49.5,44.8,84,30.32,10.0,South,4.6,-,N/A,,Overcast,190,2013-10-14 10:55:00
7:15 AM,49.6,45.0,84,30.32,10.0,SSW,5.8,-,N/A,,Overcast,200,2013-10-14 11:15:00
7:35 AM,49.5,45.1,85,30.32,3.0,SSW,6.9,-,N/A,Rain,Rain,200,2013-10-14 11:35:00
7:55 AM,49.5,45.5,86,30.32,3.0,South,5.8,-,N/A,Rain,Rain,190,2013-10-14 11:55:00
8:15 AM,49.5,45.7,87,30.32,3.0,South,5.8,-,N/A,,Drizzle,180,2013-10-14 12:15:00
8:35 AM,50.0,46.2,87,30.32,5.0,South,5.8,-,N/A,,Overcast,180,2013-10-14 12:35:00
8:55 AM,50.4,46.6,87,30.32,7.0,South,5.8,-,N/A,,Overcast,190,2013-10-14 12:55:00
9:15 AM,50.7,46.6,86,30.32,7.0,South,6.9,-,N/A,Rain,Rain,190,2013-10-14 13:15:00
9:35 AM,50.7,46.6,86,30.32,5.0,South,5.8,-,N/A,Rain,Rain,190,2013-10-14 13:35:00
9:55 AM,50.7,46.8,86,30.32,5.0,South,4.6,-,N/A,Rain,Light Rain,190,2013-10-14 13:55:00
10:15 AM,51.3,47.3,86,30.31,5.0,South,6.9,-,N/A,,Drizzle,180,2013-10-14 14:15:00
10:35 AM,51.4,47.3,86,30.31,10.0,South,4.6,-,N/A,,Light Drizzle,180,2013-10-14 14:35:00
10:55 AM,51.8,47.3,85,30.30,7.0,South,5.8,-,N/A,,Light Drizzle,180,2013-10-14 14:55:00
11:15 AM,51.8,47.3,85,30.30,10.0,South,3.5,-,N/A,,Light Drizzle,180,2013-10-14 15:15:00
11:35 AM,51.8,47.5,85,30.30,5.0,South,4.6,-,N/A,Rain,Rain,170,2013-10-14 15:35:00
11:55 AM,52.0,47.8,86,30.30,4.0,South,5.8,-,N/A,Rain,Rain,170,2013-10-14 15:55:00
12:15 PM,52.3,48.2,86,30.29,7.0,South,6.9,-,N/A,,Overcast,170,2013-10-14 16:15:00
12:35 PM,52.7,48.6,86,30.28,7.0,South,4.6,-,N/A,Rain,Rain,170,2013-10-14 16:35:00
12:55 PM,53.2,49.1,86,30.28,5.0,SSE,5.8,-,N/A,Rain,Rain,160,2013-10-14 16:55:00
1:15 PM,53.6,49.3,85,30.27,5.0,South,4.6,-,N/A,Rain,Rain,170,2013-10-14 17:15:00
1:35 PM,53.6,49.3,85,30.27,7.0,South,5.8,-,N/A,,Light Drizzle,170,2013-10-14 17:35:00
1:55 PM,53.6,49.3,85,30.26,10.0,South,3.5,-,N/A,,Overcast,180,2013-10-14 17:55:00
2:15 PM,53.6,49.3,85,30.27,10.0,Calm,Calm,-,N/A,,Overcast,0,2013-10-14 18:15:00
2:35 PM,53.6,49.5,86,30.25,10.0,Calm,Calm,-,N/A,,Overcast,0,2013-10-14 18:35:00
2:55 PM,53.6,49.6,86,30.25,7.0,Calm,Calm,-,N/A,,Overcast,0,2013-10-14 18:55:00
3:15 PM,53.8,49.8,86,30.25,10.0,Calm,Calm,-,N/A,,Drizzle,0,2013-10-14 19:15:00
3:35 PM,53.6,49.6,86,30.25,5.0,Calm,Calm,-,N/A,,Drizzle,0,2013-10-14 19:35:00
3:55 PM,53.6,50.0,88,30.25,5.0,Calm,Calm,-,N/A,Rain,Light Rain,0,2013-10-14 19:55:00
4:15 PM,53.6,50.0,88,30.25,2.5,Calm,Calm,-,N/A,Rain,Rain,0,2013-10-14 20:15:00
4:35 PM,54.0,50.4,88,30.25,4.0,Calm,Calm,-,N/A,Rain,Heavy Rain,0,2013-10-14 20:35:00
4:55 PM,54.0,50.4,88,30.25,5.0,SSE,3.5,-,N/A,,Drizzle,160,2013-10-14 20:55:00
5:15 PM,54.0,50.4,88,30.25,10.0,Calm,Calm,-,N/A,,Overcast,0,2013-10-14 21:15:00
5:35 PM,54.1,50.4,87,30.25,10.0,South,3.5,-,N/A,,Overcast,170,2013-10-14 21:35:00
5:55 PM,54.3,50.4,86,30.26,10.0,South,3.5,-,N/A,,Overcast,180,2013-10-14 21:55:00
6:15 PM,54.5,50.4,86,30.27,10.0,Calm,Calm,-,N/A,,Overcast,0,2013-10-14 22:15:00
6:35 PM,54.5,50.5,86,30.28,10.0,Calm,Calm,-,N/A,,Overcast,0,2013-10-14 22:35:00
6:55 PM,54.5,50.5,86,30.29,7.0,Calm,Calm,-,N/A,,Overcast,0,2013-10-14 22:55:00
7:15 PM,54.5,50.9,88,30.29,4.0,Calm,Calm,-,N/A,,Overcast,0,2013-10-14 23:15:00
7:35 PM,54.1,50.5,88,30.30,7.0,Calm,Calm,-,N/A,,Overcast,0,2013-10-14 23:35:00
7:55 PM,54.1,50.5,88,30.30,4.0,Calm,Calm,-,N/A,,Overcast,0,2013-10-14 23:55:00
8:15 PM,54.0,50.4,88,30.29,10.0,Calm,Calm,-,N/A,,Overcast,0,2013-10-15 00:15:00
8:35 PM,54.1,50.5,88,30.29,10.0,SSW,4.6,-,N/A,,Overcast,200,2013-10-15 00:35:00
8:55 PM,54.0,50.2,87,30.29,7.0,South,3.5,-,N/A,,Overcast,180,2013-10-15 00:55:00
9:15 PM,53.8,50.0,87,30.30,7.0,Calm,Calm,-,N/A,,Overcast,0,2013-10-15 01:15:00
9:35 PM,53.6,50.0,88,30.29,7.0,Calm,Calm,-,N/A,,Overcast,0,2013-10-15 01:35:00
9:55 PM,53.6,50.0,88,30.29,7.0,Calm,Calm,-,N/A,,Overcast,0,2013-10-15 01:55:00
10:15 PM,53.6,50.0,88,30.29,7.0,Calm,Calm,-,N/A,,Overcast,0,2013-10-15 02:15:00
10:35 PM,53.6,50.0,88,30.29,5.0,Calm,Calm,-,N/A,,Overcast,0,2013-10-15 02:35:00
10:55 PM,53.4,49.8,88,30.29,5.0,Calm,Calm,-,N/A,,Overcast,0,2013-10-15 02:55:00
11:15 PM,53.1,49.6,88,30.29,0.5,SSW,5.8,-,N/A,Fog,Fog,210,2013-10-15 03:15:00
11:35 PM,53.1,49.6,88,30.28,0.2,SSW,4.6,-,N/A,Fog,Fog,210,2013-10-15 03:35:00
11:55 PM,53.1,50.0,89,30.29,0.2,WSW,5.8,-,N/A,Fog,Fog,240,2013-10-15 03:55:00